Wind_Speed
11 11 12 12 12 12 12 12 12 12 12 12 12 11 11 11 12 12 12 12 12 12 12 12 12 13 13 12 12 12 12 12 11 12 12 12 13 14 14 14 15 16 17
10 12 12 12 12 12 12 11 11 12 12 12 12 11 11 12 12 12 12 12 12 13 12 12 12 12 12 13 13 13 12 13 12 12 12 12 13 14 15 16 16 15 16
12 12 12 12 12 12 12 11 11 12 12 12 12 12 12 12 12 12 12 12 12 13 13 13 13 12 12 12 12 12 12 12 12 13 13 14 14 15 15 15 16 16 17
11 12 12 12 12 12 12 11 11 12 12 12 11 11 11 12 11 11 12 12 12 12 13 13 13 13 13 13 12 12 12 12 13 13 14 14 15 16 16 16 16 17 17
12 12 13 12 12 12 12 12 12 12 12 12 12 11 11 11 12 12 12 12 12 12 12 13 12 12 12 12 12 13 13 13 13 14 14 14 15 15 16 17 17 17 17
12 12 12 12 12 13 13 13 13 13 12 12 12 12 12 12 12 13 13 13 12 12 13 13 13 13 13 13 13 13 13 13 14 14 15 15 15 15 16 17 18 18 18
12 12 12 12 13 13 13 13 13 13 13 13 13 13 13 13 13 13 14 13 13 14 14 13 13 13 13 14 14 13 13 13 14 14 15 16 16 16 17 17 17 18 18
12 12 12 12 13 13 13 13 13 13 13 13 13 13 14 14 14 14 14 14 14 14 14 14 14 14 14 14 14 14 14 14 14 15 16 16 17 17 18 18 18 18 19
12 12 12 13 13 13 13 14 13 13 13 13 14 14 14 15 15 15 15 14 14 14 14 14 14 14 14 14 14 14 14 14 15 15 16 16 16 17 17 17 18 18 18
12 12 12 12 13 13 14 14 14 14 14 14 14 14 14 14 15 16 16 16 15 15 15 14 15 14 14 15 14 14 14 15 15 15 16 16 17 17 17 17 17 18 18
12 12 12 13 13 13 13 14 13 14 14 14 14 14 14 14 15 16 15 15 15 15 15 15 14 14 14 14 15 15 15 15 16 16 16 17 17 18 18 17 17 17 17
13 13 13 13 14 13 14 14 14 14 14 14 14 15 15 15 16 15 15 15 15 15 15 15 15 15 15 15 15 15 15 16 16 16 16 17 17 17 17 18 18 18 17
14 14 14 14 14 14 14 14 14 14 14 14 14 14 15 15 16 16 16 15 16 16 16 16 16 17 16 16 16 16 16 16 16 16 16 16 16 16 16 17 17 17 17
15 14 14 14 14 14 15 15 15 15 15 15 15 15 15 16 16 16 16 16 16 16 16 16 16 17 17 17 17 17 17 17 16 16 16 16 17 16 16 16 17 17 17
15 15 14 15 15 15 15 16 16 15 16 16 16 16 16 16 16 17 17 17 17 17 16 17 18 18 18 18 17 18 18 18 17 17 17 17 17 17 17 17 17 17 18
15 15 15 15 15 15 15 16 16 16 16 17 17 17 17 16 16 17 18 19 19 18 18 17 17 17 17 17 18 18 18 18 18 18 18 18 18 18 18 17 17 18 18
15 15 16 16 16 16 17 17 17 17 17 17 17 17 18 18 17 17 18 18 19 19 19 18 18 18 18 18 18 19 19 19 19 19 19 20 20 19 18 18 18 18 19
16 16 17 17 17 17 18 18 18 18 18 18 18 19 19 19 18 18 18 18 18 19 19 19 18 19 19 19 19 20 20 21 21 20 20 20 20 19 19 19 19 19 19
17 17 17 17 17 18 18 18 18 18 19 19 19 19 20 20 19 19 19 19 19 19 19 19 19 19 20 20 20 20 21 21 21 20 20 19 19 18 18 19 19 19 19
17 17 17 17 17 18 18 18 19 19 19 20 20 20 20 19 19 19 19 19 19 20 20 20 20 20 21 22 22 21 21 20 20 20 19 19 19 19 19 20 20 20 20
18 18 18 18 18 18 19 19 19 19 19 19 19 19 19 19 19 19 19 19 20 21 21 21 21 22 22 22 22 21 21 20 20 20 20 20 20 20 20 20 21 21 22
18 18 18 18 18 19 19 20 19 19 19 19 19 19 19 19 19 19 20 20 20 20 21 21 22 22 23 22 22 21 21 21 21 21 21 21 21 21 21 21 21 22 22
19 18 18 18 18 18 19 19 19 19 19 19 19 19 19 19 19 19 20 20 20 21 21 21 22 23 23 22 22 22 22 22 22 22 22 22 22 22 22 22 22 23 23
19 19 19 20 19 19 19 18 19 19 19 20 19 19 18 19 19 19 19 20 20 21 21 22 22 23 23 23 22 23 23 24 24 24 23 23 23 23 23 23 24 24 24
19 19 19 20 20 20 20 20 20 20 20 20 20 19 19 19 19 19 20 21 21 22 22 22 23 23 23 23 24 24 24 25 25 25 25 25 25 24 25 25 25 25 25
20 20 20 20 20 20 20 20 20 20 20 21 20 20 20 20 20 20 21 22 22 22 23 23 23 23 23 23 24 24 24 25 25 25 26 26 26 26 25 25 26 26 26
Wind_Direction
273 273 272 272 269 266 268 272 274 277 278 278 278 278 279 277 277 273 270 269 271 273 272 273 274 274 274 273 271 266 266 265 265 265 263 263 262 261 259 258 258 258 255
273 275 275 274 273 271 269 271 275 277 277 278 279 278 278 278 276 272 270 269 270 270 269 270 271 273 273 273 271 267 268 269 269 264 263 263 263 261 259 258 258 259 259
277 276 275 274 274 272 269 269 272 276 279 279 279 279 280 280 276 272 270 269 267 268 270 269 269 272 274 274 273 271 271 272 273 271 269 268 264 262 260 260 260 260 263
277 274 273 272 271 270 270 271 274 277 278 278 277 277 282 281 278 276 271 271 270 270 268 267 268 269 272 275 274 273 275 276 277 276 273 270 268 266 264 263 262 261 262
276 275 272 272 272 271 272 273 275 276 276 275 274 277 279 279 278 276 274 274 271 270 269 268 267 268 270 271 272 273 276 278 277 277 277 276 271 268 266 264 262 261 261
273 271 270 271 273 274 273 275 275 275 274 274 273 274 276 277 277 276 274 274 273 272 272 269 269 271 271 273 273 274 276 275 276 278 277 277 274 270 268 265 262 260 260
273 273 272 272 273 274 274 275 275 274 273 273 272 272 272 274 274 275 273 270 272 273 271 270 270 270 272 273 273 276 277 277 277 278 278 277 274 273 271 267 263 260 259
275 271 271 273 273 273 273 274 275 275 274 274 274 272 270 272 270 273 271 268 270 271 269 269 269 270 272 273 274 274 276 277 278 279 279 279 277 275 274 270 266 263 260
279 278 274 274 272 271 272 274 275 275 277 275 274 273 272 272 271 271 271 272 272 271 270 267 268 269 272 273 274 274 275 275 276 279 279 280 279 276 273 269 266 263 260
280 279 276 275 275 272 273 273 274 274 276 275 274 273 270 271 272 270 270 271 271 270 267 266 267 269 272 274 274 274 275 276 277 280 281 281 280 277 273 268 265 262 260
279 276 276 275 277 275 276 275 274 275 275 276 275 273 269 268 271 272 271 270 269 267 265 266 266 267 272 274 275 276 276 276 276 278 282 281 281 278 271 266 265 263 261
276 274 277 277 275 274 276 276 275 276 276 275 277 276 272 270 272 272 269 268 268 267 268 268 267 267 270 273 276 277 276 277 278 278 281 281 281 278 272 266 263 261 261
277 275 277 277 275 274 274 274 274 275 278 277 278 279 274 270 272 269 268 267 266 266 268 268 269 268 270 273 276 277 280 281 282 282 283 283 283 279 271 267 265 261 259
278 276 275 276 276 275 273 273 274 276 278 277 278 278 277 274 271 270 267 265 266 267 269 268 271 270 270 273 275 276 278 281 282 282 284 284 282 280 273 269 265 261 259
277 275 274 273 273 274 275 273 272 274 276 277 277 277 277 277 272 269 268 267 268 269 269 270 272 273 272 273 275 276 278 279 281 282 284 284 282 280 276 271 267 263 260
278 277 276 274 274 273 274 275 274 274 275 275 276 276 277 278 275 272 269 269 270 270 269 271 272 274 271 272 275 276 279 280 281 283 284 283 282 279 275 272 269 265 262
279 276 274 274 273 274 275 273 272 274 275 276 276 277 277 276 276 273 271 271 272 271 271 272 272 272 273 274 276 277 278 280 281 282 282 281 280 278 275 271 268 265 263
280 276 275 273 274 276 275 272 272 274 275 276 276 276 277 277 278 274 271 271 272 272 272 272 272 273 275 275 276 278 278 278 279 280 281 280 277 275 273 270 267 264 264
282 279 277 275 274 275 276 274 274 275 276 276 276 277 277 277 276 273 270 270 271 272 273 273 274 274 277 277 278 280 279 278 277 278 279 279 277 274 270 268 267 266 265
282 280 279 278 276 276 276 276 276 276 277 277 277 277 277 276 274 271 270 270 271 271 273 274 275 277 278 279 279 279 278 277 275 276 277 278 277 275 271 267 267 266 265
282 281 279 278 276 277 277 276 276 277 276 275 276 276 275 276 274 271 270 271 272 271 273 274 277 279 280 281 280 278 275 275 275 275 276 278 277 276 273 270 267 265 264
283 280 278 278 278 279 279 276 275 277 275 275 276 276 274 274 273 271 271 273 274 274 274 275 277 280 281 281 279 277 275 274 274 274 275 276 276 275 274 272 269 267 264
281 278 276 277 279 280 281 278 274 275 275 276 276 275 274 273 271 269 270 271 273 275 277 278 279 281 280 280 278 276 274 273 273 273 273 274 275 275 275 273 269 267 266
280 277 275 276 279 280 281 279 278 276 276 277 278 276 274 273 271 270 271 272 274 276 279 281 282 281 280 278 278 277 275 274 273 273 273 273 273 273 274 273 270 267 266
281 277 275 277 279 280 280 281 280 279 278 278 278 277 274 273 272 272 273 274 276 278 280 281 281 282 283 281 279 278 276 275 273 272 271 271 272 273 273 273 272 269 267
281 279 277 277 277 280 280 281 281 280 279 278 278 278 277 275 273 273 276 278 278 279 280 280 280 281 283 282 282 280 278 276 274 272 271 271 271 273 273 273 272 270 268
Height
5850 5849 5849 5849 5849 5848 5848 5848 5848 5847 5847 5846 5845 5845 5845 5844 5844 5844 5844 5843 5843 5843 5843 5842 5842 5842 5841 5841 5841 5840 5840 5840 5840 5839 5839 5839 5839 5839 5840 5840 5840 5840 5840
5846 5846 5846 5845 5845 5845 5845 5845 5845 5844 5844 5843 5842 5842 5842 5841 5841 5841 5841 5841 5840 5840 5840 5839 5839 5839 5838 5838 5838 5837 5837 5837 5837 5836 5836 5836 5836 5836 5836 5836 5836 5836 5837
5843 5843 5842 5842 5842 5842 5841 5841 5841 5841 5841 5840 5840 5839 5839 5838 5838 5837 5837 5837 5837 5837 5837 5836 5836 5836 5835 5835 5835 5834 5834 5834 5834 5833 5833 5833 5833 5832 5832 5832 5832 5832 5832
5840 5840 5839 5839 5839 5839 5838 5838 5838 5838 5837 5837 5837 5836 5836 5835 5835 5835 5834 5834 5834 5834 5834 5833 5833 5833 5832 5832 5832 5832 5831 5831 5830 5830 5829 5829 5829 5829 5828 5828 5828 5828 5828
5837 5836 5836 5836 5835 5835 5835 5835 5835 5834 5834 5834 5833 5833 5833 5832 5832 5832 5831 5831 5831 5831 5830 5830 5830 5829 5829 5829 5829 5828 5828 5828 5827 5826 5826 5825 5825 5824 5824 5824 5824 5824 5824
5833 5833 5832 5832 5832 5832 5831 5831 5831 5831 5831 5830 5830 5829 5829 5829 5828 5828 5828 5828 5828 5827 5827 5827 5827 5826 5826 5826 5825 5825 5825 5824 5824 5823 5822 5821 5820 5820 5820 5819 5819 5819 5819
5829 5829 5829 5828 5828 5828 5828 5827 5827 5827 5827 5826 5826 5826 5825 5825 5825 5825 5824 5824 5824 5824 5824 5823 5823 5823 5823 5822 5822 5821 5821 5820 5820 5819 5818 5817 5817 5816 5815 5815 5815 5815 5814
5826 5825 5825 5824 5824 5824 5824 5823 5823 5823 5823 5822 5822 5822 5822 5822 5821 5821 5821 5820 5820 5820 5820 5819 5819 5819 5819 5818 5818 5817 5817 5816 5816 5815 5814 5813 5812 5811 5811 5810 5810 5810 5810
5822 5821 5821 5820 5820 5819 5819 5819 5819 5819 5818 5818 5818 5818 5817 5817 5817 5817 5816 5817 5817 5816 5816 5816 5815 5815 5815 5815 5814 5814 5813 5812 5812 5811 5810 5809 5807 5807 5806 5805 5805 5805 5805
5818 5817 5817 5816 5816 5815 5815 5815 5815 5815 5814 5814 5813 5813 5813 5813 5813 5813 5813 5812 5812 5812 5812 5812 5812 5811 5811 5811 5810 5810 5809 5808 5807 5806 5805 5804 5803 5801 5800 5800 5800 5800 5800
5815 5814 5813 5813 5812 5812 5811 5811 5811 5810 5810 5810 5809 5809 5809 5809 5809 5809 5808 5808 5808 5808 5808 5808 5808 5807 5807 5807 5806 5805 5805 5804 5803 5802 5801 5799 5797 5795 5794 5794 5795 5795 5795
5811 5810 5810 5809 5809 5808 5807 5807 5807 5807 5806 5806 5805 5805 5804 5804 5805 5805 5804 5804 5804 5804 5804 5804 5803 5803 5803 5802 5801 5801 5800 5799 5798 5797 5796 5794 5792 5789 5788 5789 5789 5790 5790
5807 5806 5806 5805 5805 5804 5804 5803 5803 5803 5802 5802 5801 5800 5800 5800 5800 5800 5800 5799 5799 5799 5799 5799 5799 5799 5798 5798 5797 5796 5796 5795 5794 5793 5791 5790 5788 5785 5784 5784 5785 5785 5785
5803 5802 5801 5801 5801 5800 5800 5799 5799 5799 5798 5797 5797 5796 5796 5795 5795 5795 5795 5795 5794 5795 5794 5794 5794 5794 5793 5793 5792 5792 5791 5790 5789 5788 5787 5786 5784 5782 5781 5781 5781 5781 5781
5798 5798 5797 5796 5796 5796 5795 5795 5795 5794 5794 5793 5792 5792 5791 5791 5790 5790 5790 5790 5790 5790 5790 5789 5789 5789 5788 5788 5787 5787 5786 5785 5784 5783 5782 5781 5779 5778 5777 5776 5776 5776 5776
5794 5793 5793 5792 5792 5791 5791 5790 5790 5790 5789 5788 5788 5787 5786 5786 5785 5785 5784 5784 5784 5784 5784 5784 5784 5784 5783 5783 5782 5781 5781 5780 5779 5778 5777 5775 5774 5773 5772 5771 5771 5771 5771
5789 5788 5788 5787 5787 5786 5786 5786 5785 5785 5784 5784 5783 5782 5781 5780 5780 5779 5779 5779 5779 5779 5779 5779 5779 5778 5778 5777 5776 5776 5775 5774 5773 5772 5771 5769 5768 5767 5766 5766 5766 5765 5765
5784 5783 5783 5782 5782 5781 5781 5780 5780 5779 5779 5778 5777 5776 5775 5775 5774 5773 5773 5773 5773 5773 5773 5773 5773 5773 5772 5771 5771 5770 5769 5768 5767 5765 5764 5763 5762 5761 5760 5760 5760 5759 5759
5778 5778 5777 5776 5776 5775 5775 5775 5774 5774 5773 5772 5772 5770 5769 5769 5768 5767 5767 5768 5768 5767 5767 5767 5767 5767 5766 5765 5764 5763 5762 5761 5760 5759 5757 5756 5755 5754 5754 5754 5753 5753 5754
5773 5772 5772 5771 5770 5770 5769 5769 5768 5768 5767 5766 5765 5764 5763 5762 5762 5762 5762 5762 5762 5762 5761 5761 5761 5760 5760 5759 5758 5757 5756 5754 5753 5752 5751 5750 5749 5748 5748 5747 5747 5747 5748
5768 5767 5766 5765 5765 5764 5763 5763 5763 5762 5761 5760 5759 5758 5757 5757 5756 5756 5756 5756 5756 5756 5756 5755 5755 5754 5753 5752 5751 5750 5749 5748 5747 5746 5745 5744 5743 5743 5742 5741 5741 5741 5741
5763 5762 5761 5760 5759 5758 5758 5757 5756 5756 5755 5754 5753 5752 5751 5751 5750 5750 5750 5750 5750 5750 5749 5749 5748 5747 5746 5745 5744 5743 5742 5741 5741 5740 5739 5738 5737 5736 5735 5735 5734 5734 5734
5757 5756 5755 5754 5754 5753 5752 5751 5750 5750 5749 5748 5747 5746 5746 5745 5745 5744 5744 5744 5744 5743 5743 5742 5742 5740 5739 5738 5737 5736 5735 5734 5733 5733 5732 5731 5730 5729 5728 5728 5727 5727 5727
5751 5750 5750 5749 5748 5747 5746 5745 5744 5744 5743 5742 5741 5740 5740 5739 5739 5738 5738 5738 5737 5736 5736 5735 5734 5733 5731 5730 5729 5728 5727 5727 5726 5725 5724 5724 5723 5722 5721 5720 5720 5720 5719
5746 5745 5744 5743 5742 5741 5740 5739 5739 5738 5737 5736 5735 5734 5734 5733 5733 5732 5732 5732 5731 5730 5729 5728 5726 5725 5724 5722 5721 5720 5719 5719 5718 5717 5716 5716 5716 5715 5714 5713 5712 5712 5712
5740 5739 5738 5737 5736 5735 5734 5733 5732 5732 5731 5730 5729 5728 5728 5727 5726 5726 5725 5725 5724 5723 5722 5720 5719 5718 5716 5715 5713 5712 5711 5710 5709 5709 5708 5707 5707 5706 5706 5706 5704 5704 5703